Regional Weather Roundup
Issued by NWS

Home | Current Version | Previous Version | Graphics & Text | Print | Product List | Glossary On
Versions: 1 2 3 4 5 6 7 8 9 10 11 12 13 14 15 16 17 18 19 20 21 22 23 24 25 26 27 28
000
ASUS45 KBOI 222310
RWRID

IDAHO REGIONAL WEATHER ROUNDUP
NATIONAL WEATHER SERVICE BOISE ID
500 PM MDT MON MAY 22 2017

NOTE: "FAIR" INDICATES FEW OR NO CLOUDS BELOW 12000 FEET
WITH NO SIGNIFICANT WEATHER AND/OR OBSTRUCTIONS TO VISIBILITY

IDZ012-014-230000-
SOUTHWEST IDAHO


CITY           SKY/WX    TMP DP  RH WIND       PRES   REMARKS
BOISE          SUNNY     81  31  16 N5G16     30.13F
CALDWELL       SUNNY     82  44  26 N10       30.12F
MOUNTAIN HOME  SUNNY     82  34  17 N12G18    30.12F
$$

IDZ016-017-230000-
SOUTHCENTRAL IDAHO


CITY           SKY/WX    TMP DP  RH WIND       PRES   REMARKS
BURLEY         SUNNY     75  35  23 NW8G17    30.15F
JEROME         SUNNY     76  34  21 SW14      30.16F
TWIN FALLS     SUNNY     76  38  25 NW9       30.17F
$$

IDZ019>023-230000-
SOUTHEAST IDAHO


CITY           SKY/WX    TMP DP  RH WIND       PRES   REMARKS
IDAHO FALLS    PTSUNNY   74  36  25 SW13G20   30.17F
POCATELLO      CLOUDY    73  42  32 W9G22     30.17F
REXBURG        CLOUDY    71  32  23 N8        30.16F
$$

IDZ006-010-011-018-031-032-230000-
CENTRAL IDAHO MOUNTAINS


CITY           SKY/WX    TMP DP  RH WIND       PRES   REMARKS
MCCALL         SUNNY     73  23  15 VRB3      30.21F
HAILEY         MOSUNNY   73  43  33 SW9       30.19F
STANLEY          N/A     69  15  12 W8        30.28S
SALMON         SUNNY     75  37  25 CALM      30.12F
CHALLIS        SUNNY     76  32  20 N8        30.17F
$$

IDZ002-004-006-007-026-230000-
NORTHERN IDAHO


CITY           SKY/WX    TMP DP  RH WIND       PRES   REMARKS
LEWISTON       SUNNY     84  46  26 VRB6      30.10F
LOWELL           N/A     83  47  28 S6        30.07F
COEUR D`ALENE  SUNNY     79  49  34 SW3       30.15F
MULLAN PASS    MOSUNNY   64  33  31 VRB3      30.31S
$$




USA.gov is the U.S. government's official web portal to all federal, state and local government web resources and services.